Location: Bretagne
(43.8474°N, 0.4650°W)
Time: 04:10:37
(UTC+00:00)

Envisat - Pass Details

Date: 10 March 2026
Orbit: 761 x 762 km, 98.4° (Epoch: 17 April)

Event Time Altitude Azimuth Distance (km) Brightness Sun altitude
Rises 02:35:44 0° 15° (NNE) 3,235 6.9 -39.3°
Reaches altitude 10° 02:38:03 10° 17° (NNE) 2,304 6.0 -38.9°
Enters shadow 02:39:20 18° 20° (NNE) 1,805 5.4 -38.8°
